Satellite-Ground Cal/Val Region Overpasses Predictions

Prediction of Satellite NPP Overpassing Cal/Val Region: PacNW

Region Location: (Latitude: 10.00, Longitude: 139.50) to (Latitude: 22.70, Longitude: 165.60).

Table of predicted overpasses for the next 14.0 days since TLE Epoch: 5/13/2014
Interval Starting Time Starting Location Ending Time Ending Location
1 05/13/2014 16:14:11 ( 22.69, 142.72) 05/13/2014 16:17:47 ( 10.01, 139.69)
2 05/14/2014 03:23:18 ( 10.06, 150.20) 05/14/2014 03:26:53 ( 22.68, 147.18)
3 05/14/2014 15:55:11 ( 22.70, 147.48) 05/14/2014 15:58:47 ( 10.02, 144.45)
4 05/15/2014 03:04:18 ( 10.05, 154.96) 05/15/2014 03:07:53 ( 22.67, 151.94)
5 05/15/2014 15:36:10 ( 22.70, 152.24) 05/15/2014 15:39:46 ( 10.02, 149.21)
6 05/16/2014 02:45:17 ( 10.05, 159.72) 05/16/2014 02:48:52 ( 22.67, 156.70)
7 05/16/2014 15:17:11 ( 22.64, 156.99) 05/16/2014 15:20:46 ( 10.02, 153.97)
8 05/17/2014 02:26:17 ( 10.05, 164.48) 05/17/2014 02:29:52 ( 22.66, 161.46)
9 05/17/2014 14:58:11 ( 22.64, 161.74) 05/17/2014 15:01:46 ( 10.02, 158.73)
10 05/18/2014 03:48:46 ( 10.04, 143.86) 05/18/2014 03:52:21 ( 22.66, 140.84)
11 05/18/2014 14:40:13 ( 18.95, 165.59) 05/18/2014 14:42:45 ( 10.02, 163.49)
12 05/18/2014 16:20:40 ( 22.65, 141.13) 05/18/2014 16:22:33 ( 16.02, 139.51)
13 05/19/2014 03:29:46 ( 10.04, 148.62) 05/19/2014 03:33:21 ( 22.66, 145.60)
14 05/19/2014 16:01:40 ( 22.64, 145.89) 05/19/2014 16:05:15 ( 10.02, 142.87)
15 05/20/2014 03:10:45 ( 10.04, 153.38) 05/20/2014 03:14:20 ( 22.66, 150.36)
16 05/20/2014 15:42:39 ( 22.64, 150.64) 05/20/2014 15:46:14 ( 10.02, 147.63)
17 05/21/2014 02:51:45 ( 10.05, 158.13) 05/21/2014 02:55:20 ( 22.67, 155.12)
18 05/21/2014 15:23:38 ( 22.70, 155.42) 05/21/2014 15:27:14 ( 10.02, 152.39)
19 05/22/2014 02:32:44 ( 10.05, 162.89) 05/22/2014 02:36:19 ( 22.67, 159.87)
20 05/22/2014 15:04:37 ( 22.69, 160.17) 05/22/2014 15:08:13 ( 10.01, 157.14)
21 05/23/2014 02:16:13 ( 18.80, 165.59) 05/23/2014 02:17:19 ( 22.67, 164.63)
22 05/23/2014 03:55:14 ( 10.06, 142.27) 05/23/2014 03:58:32 ( 21.68, 139.51)
23
